Date String (YYYY-MM-DD hh:mm:ss) UTC,Instrument flags,absolute air pressure of the measurement (hPa),sample flow rate (lpm),inlet stack bypass flow (lpm),air temperature of the measurement (°C),ambient temperature measured by the external sensor (°C),aerosol sample conditioner tube jacket temperature (°C),OPC LED temperature (°C),internal box temperature (°C),relative humidity of the measurement (%),span deviation,mass concentration of particles derived from Lorenz-Mie calculation of OPC scattering (μg/m³),mass concentration of particles derived from Lorenz-Mie calculation of OPC scattering (μg/m³),mass concentration of particles derived from Lorenz-Mie calculation of OPC scattering (μg/m³)
DateTimeUTC,F1_M11,P_M11,Q1_M11,Q2_M11,T1_M11,T2_M11,T3_M11,T4_M11,T5_M11,U1_M11,ZSPAN_M11,X0_M11,X2_M11,X1_M11
2023-06-06 12:00:00,SystemResetWarning,0832.3,5.00,000.00,028.9,027.1,000.0,037.5,030.4,22.4,0000.0,0004.05,0002.62,0002.15
2023-06-06 12:01:00,SystemResetWarning,0832.3,5.00,000.00,028.9,027.2,000.0,037.5,030.4,22.3,0000.0,0004.44,0002.63,0002.13
2023-06-06 12:02:00,SystemResetWarning,0832.3,4.99,000.00,029.0,027.2,000.0,037.5,030.4,22.5,0000.0,0004.42,0002.60,0002.09
2023-06-06 12:03:00,SystemResetWarning,0832.3,4.99,000.00,029.0,027.2,000.0,037.5,030.4,22.5,0000.0,0004.33,0002.57,0002.05
2023-06-06 12:04:00,SystemResetWarning,0832.3,5.01,000.00,028.9,027.2,000.0,037.5,030.5,22.5,0000.0,0004.28,0002.51,0002.02
2023-06-06 12:05:00,SystemResetWarning,0832.3,5.00,000.00,029.0,027.2,000.0,037.5,030.4,22.9,0000.0,0004.15,0002.49,0002.05
2023-06-06 12:06:00,SystemResetWarning,0832.3,5.00,000.00,029.0,027.2,000.0,037.5,030.4,23.5,0000.0,0004.11,0002.55,0002.14
2023-06-06 12:07:00,SystemResetWarning,0832.3,5.00,000.00,029.0,027.2,000.0,037.5,030.4,24.0,0000.0,0004.37,0002.69,0002.27
2023-06-06 12:08:00,SystemResetWarning,0832.3,5.00,000.00,029.0,027.2,000.0,037.5,030.4,24.4,0000.0,0004.79,0002.86,0002.41
2023-06-06 12:09:00,SystemResetWarning,0832.3,5.01,000.00,029.0,027.2,000.0,037.5,030.4,24.4,0000.0,0005.28,0003.06,0002.55
2023-06-06 12:10:00,SystemResetWarning,0832.3,5.00,000.00,029.0,027.2,000.0,037.5,030.5,24.7,0000.0,0005.57,0003.20,0002.72
2023-06-06 12:11:00,SystemResetWarning,0832.3,5.00,000.00,029.0,027.2,000.0,037.5,030.5,24.6,0000.0,0005.79,0003.28,0002.85
2023-06-06 12:12:00,SystemResetWarning,0832.4,5.00,000.00,029.0,027.2,000.0,037.5,030.5,24.5,0000.0,0005.93,0003.36,0003.00
2023-06-06 12:13:00,SystemResetWarning,0832.4,4.99,000.00,029.0,027.2,000.0,037.5,030.4,24.6,0000.0,0006.14,0003.47,0003.13
2023-06-06 12:14:00,SystemResetWarning,0832.4,5.00,000.00,028.9,027.2,000.0,037.5,030.4,24.4,0000.0,0006.33,0003.56,0003.21
2023-06-06 12:15:00,SystemResetWarning,0832.4,4.99,000.00,029.0,027.2,000.0,037.5,030.4,24.7,0000.0,0006.43,0003.64,0003.31
2023-06-06 12:16:00,SystemResetWarning,0832.4,5.00,000.00,029.0,027.2,000.0,037.5,030.4,24.6,0000.0,0006.50,0003.72,0003.38
2023-06-06 12:17:00,SystemResetWarning,0832.4,5.00,000.00,029.0,027.2,000.0,037.5,030.4,24.7,0000.0,0006.72,0003.80,0003.44
2023-06-06 12:18:00,SystemResetWarning,0832.4,5.00,000.00,029.0,027.2,000.0,037.5,030.4,24.6,0000.0,0006.74,0003.84,0003.46
2023-06-06 12:19:00,SystemResetWarning,0832.4,5.01,000.00,029.0,027.2,000.0,037.5,030.4,24.5,0000.0,0006.64,0003.85,0003.46
2023-06-06 12:20:00,SystemResetWarning,0832.4,5.01,000.00,029.0,027.2,000.0,037.5,030.4,24.7,0000.0,0006.27,0003.85,0003.47
2023-06-06 12:21:00,SystemResetWarning,0832.4,4.99,000.00,029.0,027.2,000.0,037.5,030.4,24.6,0000.0,0006.18,0003.84,0003.47
2023-06-06 12:22:00,SystemResetWarning,0832.3,4.99,000.00,029.0,027.2,000.0,037.5,030.5,24.4,0000.0,0006.21,0003.83,0003.47
2023-06-06 12:23:00,SystemResetWarning,0832.3,5.01,000.00,029.0,027.2,000.0,037.5,030.4,24.3,0000.0,0006.23,0003.82,0003.46
2023-06-06 12:24:00,SystemResetWarning,0832.3,5.00,000.00,029.0,027.2,000.0,037.5,030.4,23.8,0000.0,0005.96,0003.77,0003.43
2023-06-06 12:25:00,SystemResetWarning,0832.3,5.00,000.00,029.0,027.2,000.0,037.5,030.5,23.5,0000.0,0005.91,0003.75,0003.40
2023-06-06 12:26:00,SystemResetWarning,0832.4,4.98,000.00,029.0,027.2,000.0,037.5,030.5,23.5,0000.0,0005.88,0003.71,0003.35
2023-06-06 12:27:00,SystemResetWarning,0832.4,4.99,000.00,029.0,027.2,000.0,037.5,030.5,23.4,0000.0,0005.73,0003.65,0003.30
2023-06-06 12:28:00,SystemResetWarning,0832.4,5.04,000.00,029.0,027.2,000.0,037.5,030.4,23.4,0000.0,0005.67,0003.61,0003.25
2023-06-06 12:29:00,SystemResetWarning,0832.4,4.98,000.00,029.0,027.2,000.0,037.5,030.4,23.4,0000.0,0005.71,0003.55,0003.19
2023-06-06 12:30:00,SystemResetWarning,0832.5,5.01,000.00,029.0,027.2,000.0,037.5,030.4,23.6,0000.0,0006.39,0003.53,0003.16
2023-06-06 12:31:00,SystemResetWarning,0832.4,5.01,000.00,029.0,027.2,000.0,037.5,030.4,24.2,0000.0,0006.57,0003.48,0003.14
2023-06-06 12:32:00,SystemResetWarning,0832.4,5.00,000.00,029.0,027.2,000.0,037.5,030.4,24.2,0000.0,0006.49,0003.44,0003.12
2023-06-06 12:33:00,SystemResetWarning,0832.4,5.00,000.00,028.9,027.2,000.0,037.5,030.3,24.2,0000.0,0006.41,0003.43,0003.10
2023-06-06 12:34:00,SystemResetWarning,0832.3,5.01,000.00,028.9,027.2,000.0,037.5,030.4,24.2,0000.0,0006.22,0003.43,0003.07
2023-06-06 12:35:00,SystemResetWarning,0832.3,5.00,000.00,028.9,027.2,000.0,037.5,030.3,24.3,0000.0,0006.13,0003.41,0003.06
2023-06-06 12:36:00,SystemResetWarning,0832.3,4.99,000.00,028.9,027.2,000.0,037.5,030.3,24.3,0000.0,0006.13,0003.41,0003.06
2023-06-06 12:37:00,SystemResetWarning,0832.3,5.00,000.00,028.9,027.1,000.0,037.5,030.3,24.5,0000.0,0006.22,0003.42,0003.09
2023-06-06 12:38:00,SystemResetWarning,0832.3,4.99,000.00,028.9,027.1,000.0,037.5,030.3,24.7,0000.0,0006.68,0003.48,0003.12
2023-06-06 12:39:00,SystemResetWarning,0832.3,5.00,000.00,028.9,027.1,000.0,037.5,030.3,25.0,0000.0,0006.73,0003.50,0003.15
2023-06-06 12:40:00,SystemResetWarning,0832.3,5.00,000.00,028.9,027.1,000.0,037.5,030.3,25.4,0000.0,0006.78,0003.54,0003.18
2023-06-06 12:41:00,SystemResetWarning,0832.3,4.99,000.00,028.9,027.1,000.0,037.5,030.3,25.5,0000.0,0006.12,0003.52,0003.19
2023-06-06 12:42:00,SystemResetWarning,0832.3,4.99,000.00,028.9,027.1,000.0,037.5,030.3,25.6,0000.0,0005.71,0003.52,0003.19
2023-06-06 12:43:00,SystemResetWarning,0832.3,5.01,000.00,028.9,027.1,000.0,037.5,030.3,25.4,0000.0,0005.94,0003.55,0003.19
2023-06-06 12:44:00,SystemResetWarning,0832.3,5.01,000.00,028.9,027.1,000.0,037.5,030.3,25.6,0000.0,0006.09,0003.55,0003.20
2023-06-06 12:45:00,SystemResetWarning,0832.3,5.00,000.00,028.9,027.1,000.0,037.5,030.3,25.7,0000.0,0006.03,0003.56,0003.23
2023-06-06 12:46:00,SystemResetWarning,0832.3,4.98,000.00,028.9,027.1,000.0,037.5,030.3,25.7,0000.0,0006.12,0003.60,0003.27
2023-06-06 12:47:00,SystemResetWarning,0832.3,5.01,000.00,028.9,027.1,000.0,037.5,030.3,26.0,0000.0,0006.15,0003.63,0003.31
2023-06-06 12:48:00,SystemResetWarning,0832.3,5.02,000.00,028.9,027.1,000.0,037.5,030.3,26.3,0000.0,0006.16,0003.67,0003.33
2023-06-06 12:49:00,SystemResetWarning,0832.3,4.99,000.00,028.9,027.1,000.0,037.5,030.3,25.9,0000.0,0005.85,0003.68,0003.36
2023-06-06 12:50:00,SystemResetWarning,0832.3,4.99,000.00,028.9,027.1,000.0,037.4,030.3,25.8,0000.0,0005.91,0003.70,0003.36
2023-06-06 12:51:00,SystemResetWarning,0832.3,5.02,000.00,028.9,027.1,000.0,037.4,030.3,25.9,0000.0,0005.74,0003.69,0003.38
2023-06-06 12:52:00,SystemResetWarning,0832.3,4.98,000.00,028.9,027.1,000.0,037.4,030.3,26.2,0000.0,0006.02,0003.72,0003.40
2023-06-06 12:53:00,SystemResetWarning,0832.3,5.00,000.00,028.9,027.1,000.0,037.4,030.3,25.8,0000.0,0006.21,0003.75,0003.42
2023-06-06 12:54:00,SystemResetWarning,0832.2,5.00,000.00,028.9,027.1,000.0,037.4,030.3,26.0,0000.0,0006.06,0003.75,0003.44
2023-06-06 12:55:00,SystemResetWarning,0832.2,5.01,000.00,028.9,027.1,000.0,037.4,030.3,25.8,0000.0,0006.03,0003.79,0003.46
2023-06-06 12:56:00,SystemResetWarning,0832.2,5.00,000.00,028.9,027.2,000.0,037.4,030.3,26.0,0000.0,0006.08,0003.78,0003.45
2023-06-06 12:57:00,SystemResetWarning,0832.2,5.01,000.00,028.9,027.2,000.0,037.4,030.3,25.7,0000.0,0006.18,0003.77,0003.43
2023-06-06 12:58:00,SystemResetWarning,0832.2,4.98,000.00,028.9,027.2,000.0,037.4,030.3,25.6,0000.0,0006.34,0003.79,0003.42
2023-06-06 12:59:00,SystemResetWarning,0832.2,5.00,000.00,028.9,027.2,000.0,037.4,030.3,26.0,0000.0,0006.34,0003.79,0003.42
